[[{"header":{"parameterUnit":"m.s-1","parameterCategory":1,"la1":30.2992,"la2":30.254,"lo1":-89.0895,"lo2":-89.0443,"dy":0.0025,"dx":0.0025,"nx":19,"ny":19,"refTime":"2026-05-06T21:00:00:Z","depth":0,"parameterNumber":2,"parameterNumberName":"U-component_of_WINDS"},"data":[0,0,0,2.8907,2.8911,2.9101,2.9101,2.9348,2.935,0,0,0,0,0,0,0,0,0,0,0,2.885,2.8851,2.8906,2.8911,2.9101,2.9101,2.9348,2.935,0,0,0,0,0,0,0,0,0,0,0,2.8849,2.8851,2.8853,2.8912,2.91,2.9101,2.9347,2.9204,0,0,0,0,0,0,0,0,0,0,2.9019,2.8965,2.8851,2.8853,2.8913,2.91,2.9102,2.9197,2.9213,2.9263,0,2.9305,0,2.9331,2.9367,2.9368,0,0,0,2.8913,2.8951,2.9003,2.8853,2.8915,2.91,2.9016,2.9205,2.9224,2.9284,2.9308,2.9318,2.9335,2.9369,2.937,2.965,2.9651,0,0,2.8902,2.8884,2.899,2.9014,2.8982,2.9009,2.9021,2.9216,2.9243,2.9309,2.9323,2.934,2.937,2.9372,2.9649,2.9651,0,0,0,2.8871,2.8877,2.8924,2.9004,2.9038,2.9015,2.9029,2.9234,2.9251,2.9326,2.9342,2.9372,2.9375,2.9648,2.965,2.9693,0,0,0,2.8865,2.8859,2.8919,2.891,2.9034,2.9138,2.9042,2.9237,2.926,2.9341,2.9372,2.9377,2.9646,2.9649,2.9689,2.9717,0,0,0,2.8838,2.8855,2.8882,2.8908,2.8989,2.9135,2.9163,2.9242,2.927,2.9368,2.9378,2.9645,2.9648,2.9685,2.9711,2.9786,0,0,0,2.8804,2.8918,2.8883,2.9017,2.8987,2.9159,2.9162,2.9291,2.938,2.9373,2.9647,2.9649,2.9684,2.9707,2.9782,2.9846,2.987,0,0,2.8938,2.8934,2.9015,2.8988,2.9161,2.9131,2.9313,2.9413,2.944,2.958,2.9587,2.969,2.971,2.9785,3.0014,3.0033,0,0,0,2.9051,2.9109,2.9159,2.9241,2.9319,2.939,2.9463,2.9501,2.962,2.9507,2.9738,2.975,2.9795,2.9827,2.9843,2.9883,2.9663,2.9663,2.9662,2.9215,2.9242,2.9378,2.9429,2.951,2.9586,2.9655,2.9719,2.9724,2.9778,2.982,2.9955,2.9991,3.0004,3.0045,2.9856,2.9856,2.9856,2.9856,2.9414,2.9501,2.9505,2.9638,2.9668,2.9781,2.986,2.986,2.9972,2.9926,2.9967,2.9914,3.0024,3.0062,2.986,2.9859,2.9859,2.9858,2.9858,2.9525,2.9571,2.9614,2.9738,2.9831,2.9881,2.9988,3.0011,3.0035,3.0075,3.0123,3.0122,3.0126,3.0096,3.0097,3.0097,3.0098,3.0098,3.0098,2.9623,2.967,2.9755,2.9849,2.9906,2.9985,3.0064,3.0123,3.0194,3.0203,3.0204,3.0205,3.0029,2.9985,3.0106,3.0104,3.0103,3.0103,3.0102,2.9815,2.9776,2.9908,2.9966,3.0079,3.0171,3.02,3.0318,3.037,3.0423,3.0416,3.0282,3.028,3.0267,3.0231,3.0408,3.0408,3.0408,3.0408,2.9909,2.991,3.0052,3.0142,3.0234,3.0275,3.0428,3.0492,3.0552,3.0587,3.0565,3.0518,3.0504,3.0511,3.0493,3.0459,3.0691,3.0691,3.0692,3.003,3.0041,3.0164,3.022,3.0311,3.039,3.0535,3.0642,3.0703,3.0704,3.0615,3.0603,3.0529,3.0503,3.0501,3.0472,3.0411,0,0]},{"header":{"parameterUnit":"m.s-1","parameterCategory":1,"la1":30.2992,"la2":30.254,"lo1":-89.0895,"lo2":-89.0443,"dy":0.0025,"dx":0.0025,"nx":19,"ny":19,"refTime":"2026-05-06T21:00:00:Z","depth":0,"parameterNumber":3,"parameterNumberName":"V-component_of_WINDS"},"data":[0,0,0,0.1475,0.1481,0.1761,0.1762,0.212,0.2123,0,0,0,0,0,0,0,0,0,0,0,0.1388,0.139,0.1475,0.1482,0.1761,0.1762,0.212,0.2123,0,0,0,0,0,0,0,0,0,0,0,0.1387,0.1389,0.1392,0.1483,0.1761,0.1763,0.2119,0.1909,0,0,0,0,0,0,0,0,0,0,0.1637,0.1552,0.1389,0.1392,0.1484,0.1761,0.1763,0.1899,0.1922,0.1992,0,0.2049,0,0.2091,0.2147,0.2148,0,0,0,0.1486,0.1532,0.1611,0.1393,0.1487,0.176,0.1636,0.1912,0.1938,0.2022,0.2054,0.2067,0.2097,0.2149,0.2151,0.2526,0.2528,0,0,0.1471,0.1437,0.1593,0.1627,0.1579,0.1627,0.1645,0.1928,0.1962,0.2055,0.2076,0.2103,0.2151,0.2154,0.2525,0.2527,0,0,0,0.1423,0.1426,0.1498,0.1613,0.1663,0.1635,0.1656,0.1949,0.1975,0.208,0.2107,0.2153,0.2158,0.2523,0.2526,0.2567,0,0,0,0.1414,0.1398,0.1491,0.1474,0.1657,0.1809,0.1671,0.1955,0.1988,0.2105,0.2154,0.2161,0.2522,0.2524,0.2563,0.2594,0,0,0,0.1371,0.1394,0.1432,0.1471,0.159,0.1805,0.1847,0.1963,0.2005,0.2148,0.2162,0.252,0.2524,0.2558,0.2587,0.2683,0,0,0,0.1317,0.1468,0.1432,0.1611,0.1587,0.1826,0.1846,0.2027,0.2155,0.2155,0.2522,0.2525,0.2557,0.2583,0.2678,0.2759,0.2788,0,0,0.1489,0.1487,0.1595,0.1571,0.1807,0.1786,0.2031,0.2182,0.2229,0.2426,0.2435,0.2564,0.2587,0.2682,0.2962,0.2985,0,0,0,0.1639,0.1716,0.1786,0.1903,0.2018,0.2121,0.2237,0.2293,0.246,0.2321,0.2625,0.264,0.2697,0.2737,0.2757,0.281,0.2542,0.2541,0.2541,0.1836,0.1883,0.2065,0.2145,0.2259,0.2375,0.2473,0.2569,0.2587,0.2657,0.2717,0.288,0.2926,0.2941,0.2995,0.2762,0.2762,0.2762,0.2762,0.2093,0.2211,0.2226,0.2408,0.2458,0.2613,0.2731,0.2738,0.2892,0.284,0.2893,0.2834,0.2965,0.3015,0.2766,0.2765,0.2765,0.2764,0.2764,0.223,0.2294,0.2355,0.2528,0.2657,0.2734,0.2879,0.2921,0.2962,0.3014,0.3082,0.3081,0.3088,0.3042,0.3043,0.3043,0.3044,0.3044,0.3045,0.2348,0.2415,0.2531,0.2663,0.2743,0.2853,0.297,0.3051,0.3152,0.3172,0.3172,0.3184,0.2967,0.2913,0.3054,0.3052,0.3051,0.305,0.305,0.2595,0.2545,0.2723,0.2802,0.2961,0.3086,0.3134,0.3296,0.3369,0.344,0.344,0.3271,0.3275,0.326,0.3216,0.3427,0.3427,0.3427,0.3427,0.2712,0.2715,0.2906,0.303,0.3156,0.3217,0.3421,0.3513,0.3601,0.365,0.3625,0.3568,0.355,0.3565,0.3543,0.3503,0.3782,0.3783,0.3783,0.2867,0.2884,0.3048,0.3128,0.3254,0.3363,0.3556,0.3702,0.3792,0.3798,0.369,0.3675,0.3584,0.3552,0.3559,0.3524,0.3451,0,0]}]]